Time,TemperatureF,DewpointF,PressureIn,WindDirection,WindDirectionDegrees,WindSpeedMPH,WindSpeedGustMPH,Humidity,HourlyPrecipIn,Conditions,Clouds,dailyrainin,SoftwareType,DateUTC
2013-07-02 00:00:00,61.9,61.3,30.02,NNE,17,0.0,3.0,98,0.01,,---,0.12,VWS V14.01,2013-07-02 04:00:00,
2013-07-02 00:01:00,61.9,61.3,30.02,NNE,17,0.0,3.0,98,0.01,,---,0.12,VWS V14.01,2013-07-02 04:01:00,
2013-07-02 00:06:00,61.9,61.3,30.02,NNE,15,0.0,2.0,98,0.01,,---,0.00,VWS V14.01,2013-07-02 04:06:00,
2013-07-02 00:11:00,61.9,61.3,30.02,NW,313,0.0,2.0,98,0.01,,---,0.00,VWS V14.01,2013-07-02 04:11:00,
2013-07-02 00:16:00,62.0,61.4,30.02,NW,313,1.0,2.0,98,0.01,,---,0.00,VWS V14.01,2013-07-02 04:16:00,
2013-07-02 00:21:00,62.0,61.4,30.02,NW,313,0.0,2.0,98,0.01,,---,0.00,VWS V14.01,2013-07-02 04:21:00,
2013-07-02 00:26:00,61.9,61.3,30.02,NE,43,1.0,2.0,98,0.01,,---,0.00,VWS V14.01,2013-07-02 04:26:00,
2013-07-02 00:30:00,62.8,62.2,30.02,ENE,69,0.0,2.0,98,0.01,,---,0.11,VWS V14.01,2013-07-02 04:30:00,
2013-07-02 00:31:00,61.9,61.3,30.02,WNW,299,2.0,2.0,98,0.01,,---,0.00,VWS V14.01,2013-07-02 04:31:00,
2013-07-02 00:36:00,62.0,61.4,30.02,WNW,299,1.0,1.0,98,0.02,,---,0.01,VWS V14.01,2013-07-02 04:36:00,
2013-07-02 00:41:00,62.0,61.4,30.02,WNW,299,0.0,1.0,98,0.03,,---,0.02,VWS V14.01,2013-07-02 04:41:00,
2013-07-02 00:46:00,62.0,61.4,30.02,WNW,299,0.0,1.0,98,0.04,,---,0.03,VWS V14.01,2013-07-02 04:46:00,
2013-07-02 00:51:00,62.1,61.5,30.02,WNW,299,0.0,1.0,98,0.05,,---,0.04,VWS V14.01,2013-07-02 04:51:00,
2013-07-02 00:56:00,62.2,61.6,30.03,SSW,194,1.0,3.0,98,0.06,,---,0.05,VWS V14.01,2013-07-02 04:56:00,
2013-07-02 01:00:00,61.9,61.0,30.02,NNE,17,0.0,3.0,97,0.01,,---,0.00,VWS V14.01,2013-07-02 05:00:00,
2013-07-02 01:01:00,62.3,61.7,30.02,SSW,194,0.0,3.0,98,0.08,,---,0.07,VWS V14.01,2013-07-02 05:01:00,
2013-07-02 01:06:00,62.4,61.8,30.02,SSW,194,0.0,0.0,98,0.08,,---,0.08,VWS V14.01,2013-07-02 05:06:00,
2013-07-02 01:11:00,62.4,61.8,30.02,SSW,194,0.0,1.0,98,0.11,,---,0.11,VWS V14.01,2013-07-02 05:11:00,
2013-07-02 01:16:00,62.4,61.8,30.02,West,261,0.0,3.0,98,0.12,,---,0.12,VWS V14.01,2013-07-02 05:16:00,
2013-07-02 01:21:00,62.5,61.9,30.01,West,261,0.0,3.0,98,0.13,,---,0.13,VWS V14.01,2013-07-02 05:21:00,
2013-07-02 01:26:00,62.6,62.0,30.01,West,261,0.0,3.0,98,0.13,,---,0.13,VWS V14.01,2013-07-02 05:26:00,
2013-07-02 01:30:00,62.0,61.4,30.02,WNW,299,0.0,3.0,98,0.02,,---,0.01,VWS V14.01,2013-07-02 05:30:00,
2013-07-02 01:31:00,62.8,62.2,30.01,West,261,0.0,3.0,98,0.14,,---,0.14,VWS V14.01,2013-07-02 05:31:00,
2013-07-02 01:36:00,63.0,62.4,30.01,West,261,0.0,2.0,98,0.13,,---,0.14,VWS V14.01,2013-07-02 05:36:00,
2013-07-02 01:41:00,63.1,62.5,30.01,West,261,0.0,2.0,98,0.14,,---,0.15,VWS V14.01,2013-07-02 05:41:00,
2013-07-02 01:46:00,63.1,62.5,30.01,West,261,0.0,2.0,98,0.15,,---,0.16,VWS V14.01,2013-07-02 05:46:00,
2013-07-02 01:51:00,63.3,62.7,30.01,West,261,0.0,2.0,98,0.16,,---,0.17,VWS V14.01,2013-07-02 05:51:00,
2013-07-02 01:56:00,63.4,62.8,30.01,West,261,0.0,2.0,98,0.16,,---,0.17,VWS V14.01,2013-07-02 05:56:00,
2013-07-02 02:00:00,62.4,61.8,30.02,SSW,194,0.0,3.0,98,0.09,,---,0.08,VWS V14.01,2013-07-02 06:00:00,
2013-07-02 02:01:00,63.5,62.9,30.01,West,261,0.0,2.0,98,0.17,,---,0.18,VWS V14.01,2013-07-02 06:01:00,
2013-07-02 02:06:00,63.6,63.0,30.01,West,261,0.0,3.0,98,0.11,,---,0.19,VWS V14.01,2013-07-02 06:06:00,
2013-07-02 02:11:00,63.8,63.2,30.01,West,267,0.0,4.0,98,0.13,,---,0.21,VWS V14.01,2013-07-02 06:11:00,
2013-07-02 02:16:00,64.1,63.5,30.01,West,267,0.0,4.0,98,0.14,,---,0.22,VWS V14.01,2013-07-02 06:16:00,
2013-07-02 02:21:00,64.4,63.8,30.01,West,279,1.0,5.0,98,0.15,,---,0.23,VWS V14.01,2013-07-02 06:21:00,
2013-07-02 02:26:00,64.4,63.8,30.02,West,278,1.0,5.0,98,0.18,,---,0.26,VWS V14.01,2013-07-02 06:26:00,
2013-07-02 02:30:00,62.9,62.3,30.01,West,261,2.0,3.0,98,0.14,,---,0.14,VWS V14.01,2013-07-02 06:30:00,
2013-07-02 02:31:00,64.4,63.8,30.02,West,278,1.0,5.0,98,0.19,,---,0.27,VWS V14.01,2013-07-02 06:31:00,
2013-07-02 02:36:00,64.5,63.9,30.02,WNW,282,0.0,1.0,98,0.14,,---,0.28,VWS V14.01,2013-07-02 06:36:00,
2013-07-02 02:41:00,64.5,63.9,30.02,WNW,282,1.0,2.0,98,0.14,,---,0.28,VWS V14.01,2013-07-02 06:41:00,
2013-07-02 02:46:00,64.6,64.0,30.02,WNW,282,0.0,2.0,98,0.14,,---,0.28,VWS V14.01,2013-07-02 06:46:00,
2013-07-02 02:51:00,64.7,64.1,30.03,WNW,282,0.0,2.0,98,0.15,,---,0.29,VWS V14.01,2013-07-02 06:51:00,
2013-07-02 02:56:00,64.8,64.2,30.03,WNW,282,1.0,2.0,98,0.15,,---,0.29,VWS V14.01,2013-07-02 06:56:00,
2013-07-02 03:00:00,63.5,62.9,30.01,West,261,0.0,2.0,98,0.18,,---,0.19,VWS V14.01,2013-07-02 07:00:00,
2013-07-02 03:01:00,64.7,64.1,30.02,WNW,282,0.0,2.0,98,0.15,,---,0.29,VWS V14.01,2013-07-02 07:01:00,
2013-07-02 03:06:00,64.7,64.1,30.02,WNW,282,0.0,1.0,98,0.11,,---,0.30,VWS V14.01,2013-07-02 07:06:00,
2013-07-02 03:11:00,64.7,64.1,30.02,NNW,346,4.0,4.0,98,0.11,,---,0.30,VWS V14.01,2013-07-02 07:11:00,
2013-07-02 03:16:00,64.7,64.1,30.02,NW,319,0.0,5.0,98,0.11,,---,0.30,VWS V14.01,2013-07-02 07:16:00,
2013-07-02 03:21:00,64.9,64.3,30.02,West,267,2.0,5.0,98,0.11,,---,0.30,VWS V14.01,2013-07-02 07:21:00,
2013-07-02 03:26:00,65.0,64.4,30.02,West,262,4.0,6.0,98,0.11,,---,0.30,VWS V14.01,2013-07-02 07:26:00,
2013-07-02 03:30:00,64.5,63.9,30.02,WNW,282,0.0,5.0,98,0.20,,---,0.28,VWS V14.01,2013-07-02 07:30:00,
2013-07-02 03:31:00,65.1,64.5,30.02,NW,313,0.0,6.0,98,0.11,,---,0.30,VWS V14.01,2013-07-02 07:31:00,
2013-07-02 03:36:00,65.1,64.5,30.02,WSW,251,0.0,5.0,98,0.02,,---,0.30,VWS V14.01,2013-07-02 07:36:00,
2013-07-02 03:41:00,65.2,64.6,30.03,West,274,0.0,5.0,98,0.02,,---,0.30,VWS V14.01,2013-07-02 07:41:00,
2013-07-02 03:46:00,65.2,64.6,30.03,NW,325,2.0,5.0,98,0.02,,---,0.30,VWS V14.01,2013-07-02 07:46:00,
2013-07-02 03:51:00,65.2,64.6,30.03,NW,304,1.0,5.0,98,0.02,,---,0.30,VWS V14.01,2013-07-02 07:51:00,
2013-07-02 03:56:00,65.2,64.6,30.03,NW,318,0.0,5.0,98,0.02,,---,0.30,VWS V14.01,2013-07-02 07:56:00,
2013-07-02 04:00:00,64.7,64.1,30.02,WNW,282,0.0,2.0,98,0.16,,---,0.30,VWS V14.01,2013-07-02 08:00:00,
2013-07-02 04:01:00,65.3,64.7,30.03,WNW,290,1.0,5.0,98,0.02,,---,0.30,VWS V14.01,2013-07-02 08:01:00,
2013-07-02 04:06:00,65.3,64.7,30.04,WNW,300,0.0,4.0,98,0.00,,---,0.30,VWS V14.01,2013-07-02 08:06:00,
2013-07-02 04:11:00,65.3,64.7,30.04,NW,308,1.0,4.0,98,0.01,,---,0.31,VWS V14.01,2013-07-02 08:11:00,
2013-07-02 04:16:00,65.2,64.6,30.04,West,280,0.0,4.0,98,0.01,,---,0.31,VWS V14.01,2013-07-02 08:16:00,
2013-07-02 04:21:00,65.2,64.6,30.04,West,267,6.0,6.0,98,0.01,,---,0.31,VWS V14.01,2013-07-02 08:21:00,
2013-07-02 04:26:00,65.2,64.6,30.04,NW,323,3.0,6.0,98,0.01,,---,0.31,VWS V14.01,2013-07-02 08:26:00,
2013-07-02 04:30:00,65.1,64.5,30.02,NW,323,0.0,6.0,98,0.11,,---,0.30,VWS V14.01,2013-07-02 08:30:00,
2013-07-02 04:31:00,65.2,64.6,30.04,West,279,0.0,6.0,98,0.01,,---,0.31,VWS V14.01,2013-07-02 08:31:00,
2013-07-02 04:36:00,65.2,64.6,30.05,NW,317,3.0,5.0,98,0.01,,---,0.31,VWS V14.01,2013-07-02 08:36:00,
2013-07-02 04:41:00,65.2,64.6,30.05,WNW,285,0.0,7.0,98,0.01,,---,0.31,VWS V14.01,2013-07-02 08:41:00,
2013-07-02 04:46:00,65.1,64.5,30.05,WNW,290,7.0,7.0,98,0.01,,---,0.31,VWS V14.01,2013-07-02 08:46:00,
2013-07-02 04:51:00,65.1,64.5,30.05,WNW,284,1.0,7.0,98,0.02,,---,0.32,VWS V14.01,2013-07-02 08:51:00,
2013-07-02 04:56:00,65.1,64.5,30.05,NW,320,5.0,9.0,98,0.03,,---,0.33,VWS V14.01,2013-07-02 08:56:00,
2013-07-02 05:00:00,65.3,64.7,30.04,West,280,2.0,5.0,98,0.02,,---,0.30,VWS V14.01,2013-07-02 09:00:00,
2013-07-02 05:01:00,65.1,64.5,30.05,WSW,244,1.0,10.0,98,0.03,,---,0.33,VWS V14.01,2013-07-02 09:01:00,
2013-07-02 05:06:00,65.1,64.5,30.05,West,272,4.0,8.0,98,0.03,,---,0.33,VWS V14.01,2013-07-02 09:06:00,
2013-07-02 05:11:00,65.1,64.5,30.05,NW,323,4.0,8.0,98,0.03,,---,0.33,VWS V14.01,2013-07-02 09:11:00,
2013-07-02 05:16:00,65.0,64.4,30.05,NNW,336,4.0,9.0,98,0.03,,---,0.33,VWS V14.01,2013-07-02 09:16:00,
2013-07-02 05:21:00,64.9,64.3,30.05,WSW,257,1.0,9.0,98,0.03,,---,0.33,VWS V14.01,2013-07-02 09:21:00,
2013-07-02 05:26:00,64.8,64.2,30.05,SSE,149,0.0,10.0,98,0.03,,---,0.33,VWS V14.01,2013-07-02 09:26:00,
2013-07-02 05:30:00,65.2,64.6,30.04,WNW,303,2.0,6.0,98,0.01,,---,0.31,VWS V14.01,2013-07-02 09:30:00,
2013-07-02 05:31:00,64.7,64.1,30.05,NNW,338,2.0,10.0,98,0.03,,---,0.33,VWS V14.01,2013-07-02 09:31:00,
2013-07-02 05:36:00,64.7,64.1,30.05,West,279,4.0,7.0,98,0.02,,---,0.33,VWS V14.01,2013-07-02 09:36:00,
2013-07-02 05:41:00,64.7,64.1,30.05,WNW,294,2.0,10.0,98,0.02,,---,0.33,VWS V14.01,2013-07-02 09:41:00,
2013-07-02 05:46:00,64.5,63.9,30.05,NW,321,4.0,11.0,98,0.02,,---,0.33,VWS V14.01,2013-07-02 09:46:00,
2013-07-02 05:51:00,64.2,63.6,30.05,WNW,288,6.0,13.0,98,0.02,,---,0.33,VWS V14.01,2013-07-02 09:51:00,
2013-07-02 05:56:00,63.9,63.3,30.06,WNW,294,6.0,13.0,98,0.02,,---,0.33,VWS V14.01,2013-07-02 09:56:00,
2013-07-02 06:00:00,65.1,64.5,30.05,WNW,291,6.0,10.0,98,0.03,,---,0.33,VWS V14.01,2013-07-02 10:00:00,
2013-07-02 06:01:00,63.6,63.0,30.05,NNW,331,5.0,13.0,98,0.03,,---,0.34,VWS V14.01,2013-07-02 10:01:00,
2013-07-02 06:06:00,63.4,62.8,30.06,NW,316,3.0,8.0,98,0.01,,---,0.34,VWS V14.01,2013-07-02 10:06:00,
2013-07-02 06:11:00,62.9,62.3,30.06,WNW,286,2.0,14.0,98,0.01,,---,0.34,VWS V14.01,2013-07-02 10:11:00,
2013-07-02 06:16:00,62.7,62.1,30.06,West,267,4.0,14.0,98,0.01,,---,0.34,VWS V14.01,2013-07-02 10:16:00,
2013-07-02 06:21:00,62.4,61.8,30.07,WSW,254,4.0,14.0,98,0.01,,---,0.34,VWS V14.01,2013-07-02 10:21:00,
2013-07-02 06:26:00,62.2,61.6,30.07,NE,38,4.0,14.0,98,0.01,,---,0.34,VWS V14.01,2013-07-02 10:26:00,
2013-07-02 06:30:00,64.7,64.1,30.05,WNW,285,0.0,10.0,98,0.03,,---,0.33,VWS V14.01,2013-07-02 10:30:00,
2013-07-02 06:31:00,62.1,61.5,30.07,NNW,338,1.0,14.0,98,0.02,,---,0.35,VWS V14.01,2013-07-02 10:31:00,
2013-07-02 06:36:00,61.9,61.3,30.07,NNW,330,2.0,9.0,98,0.02,,---,0.35,VWS V14.01,2013-07-02 10:36:00,
2013-07-02 06:41:00,61.5,60.9,30.07,WNW,294,2.0,10.0,98,0.02,,---,0.35,VWS V14.01,2013-07-02 10:41:00,
2013-07-02 06:46:00,61.2,60.6,30.07,NNW,330,9.0,12.0,98,0.02,,---,0.35,VWS V14.01,2013-07-02 10:46:00,
2013-07-02 06:51:00,61.0,60.4,30.07,WSW,243,3.0,12.0,98,0.02,,---,0.35,VWS V14.01,2013-07-02 10:51:00,
2013-07-02 06:56:00,60.9,60.3,30.07,North,5,4.0,12.0,98,0.02,,---,0.35,VWS V14.01,2013-07-02 10:56:00,
2013-07-02 07:00:00,63.4,62.8,30.05,ENE,76,7.0,13.0,98,0.03,,---,0.34,VWS V14.01,2013-07-02 11:00:00,
2013-07-02 07:01:00,60.8,60.2,30.08,WSW,241,2.0,12.0,98,0.02,,---,0.35,VWS V14.01,2013-07-02 11:01:00,
2013-07-02 07:06:00,60.7,60.1,30.08,NNW,339,2.0,8.0,98,0.01,,---,0.35,VWS V14.01,2013-07-02 11:06:00,
2013-07-02 07:11:00,60.6,60.0,30.08,NW,312,2.0,8.0,98,0.01,,---,0.35,VWS V14.01,2013-07-02 11:11:00,
2013-07-02 07:16:00,60.5,59.9,30.08,North,350,2.0,12.0,98,0.01,,---,0.35,VWS V14.01,2013-07-02 11:16:00,
2013-07-02 07:21:00,60.5,59.9,30.08,WNW,288,3.0,12.0,98,0.01,,---,0.35,VWS V14.01,2013-07-02 11:21:00,
2013-07-02 07:26:00,60.4,59.8,30.09,NNW,337,3.0,12.0,98,0.01,,---,0.35,VWS V14.01,2013-07-02 11:26:00,
2013-07-02 07:30:00,62.0,61.4,30.07,NW,313,5.0,14.0,98,0.02,,---,0.35,VWS V14.01,2013-07-02 11:30:00,
2013-07-02 07:31:00,60.3,59.7,30.09,West,268,3.0,12.0,98,0.01,,---,0.35,VWS V14.01,2013-07-02 11:31:00,
2013-07-02 07:36:00,60.3,59.7,30.09,West,274,5.0,9.0,98,0.00,,---,0.35,VWS V14.01,2013-07-02 11:36:00,
2013-07-02 07:41:00,60.2,59.6,30.09,WSW,241,2.0,9.0,98,0.00,,---,0.35,VWS V14.01,2013-07-02 11:41:00,
2013-07-02 07:46:00,60.2,59.6,30.09,West,281,3.0,9.0,98,0.00,,---,0.35,VWS V14.01,2013-07-02 11:46:00,
2013-07-02 07:51:00,60.1,59.5,30.09,North,5,10.0,13.0,98,0.00,,---,0.35,VWS V14.01,2013-07-02 11:51:00,
2013-07-02 07:56:00,60.0,59.4,30.09,WSW,238,1.0,13.0,98,0.00,,---,0.35,VWS V14.01,2013-07-02 11:56:00,
2013-07-02 08:00:00,60.8,60.2,30.08,WNW,286,5.0,12.0,98,0.02,,---,0.35,VWS V14.01,2013-07-02 12:00:00,
2013-07-02 08:01:00,59.9,59.3,30.09,WNW,284,3.0,14.0,98,0.00,,---,0.35,VWS V14.01,2013-07-02 12:01:00,
2013-07-02 08:06:00,59.8,59.2,30.09,WNW,295,3.0,9.0,98,0.00,,---,0.35,VWS V14.01,2013-07-02 12:06:00,
2013-07-02 08:11:00,59.8,59.2,30.09,NW,317,1.0,11.0,98,0.01,,---,0.36,VWS V14.01,2013-07-02 12:11:00,
2013-07-02 08:16:00,59.7,59.1,30.09,West,274,2.0,11.0,98,0.01,,---,0.36,VWS V14.01,2013-07-02 12:16:00,
2013-07-02 08:21:00,59.8,59.2,30.10,WNW,296,5.0,11.0,98,0.01,,---,0.36,VWS V14.01,2013-07-02 12:21:00,
2013-07-02 08:26:00,59.7,59.1,30.10,West,259,4.0,13.0,98,0.01,,---,0.36,VWS V14.01,2013-07-02 12:26:00,
2013-07-02 08:30:00,60.3,59.7,30.09,WSW,242,2.0,12.0,98,0.01,,---,0.35,VWS V14.01,2013-07-02 12:30:00,
2013-07-02 08:31:00,59.8,59.2,30.10,WNW,294,5.0,13.0,98,0.01,,---,0.36,VWS V14.01,2013-07-02 12:31:00,
2013-07-02 08:36:00,59.7,59.1,30.10,SW,235,4.0,8.0,98,0.01,,---,0.36,VWS V14.01,2013-07-02 12:36:00,
2013-07-02 08:41:00,59.7,59.1,30.10,West,273,6.0,9.0,98,0.01,,---,0.36,VWS V14.01,2013-07-02 12:41:00,
2013-07-02 08:46:00,59.6,59.0,30.11,WSW,254,6.0,11.0,98,0.01,,---,0.36,VWS V14.01,2013-07-02 12:46:00,
2013-07-02 08:51:00,59.5,58.9,30.10,WNW,294,4.0,11.0,98,0.01,,---,0.36,VWS V14.01,2013-07-02 12:51:00,
2013-07-02 08:56:00,59.3,58.7,30.10,West,263,6.0,18.0,98,0.01,,---,0.36,VWS V14.01,2013-07-02 12:56:00,
2013-07-02 09:00:00,59.8,59.2,30.09,WNW,296,2.0,14.0,98,0.00,,---,0.35,VWS V14.01,2013-07-02 13:00:00,
2013-07-02 09:01:00,59.2,58.6,30.10,NNE,32,4.0,18.0,98,0.01,,---,0.36,VWS V14.01,2013-07-02 13:01:00,
2013-07-02 09:05:00,59.3,58.7,30.10,West,260,3.0,7.0,98,0.01,,---,0.36,VWS V14.01,2013-07-02 13:05:00,
2013-07-02 09:10:00,59.3,58.7,30.10,WSW,244,6.0,10.0,98,0.01,,---,0.36,VWS V14.01,2013-07-02 13:10:00,
2013-07-02 09:15:00,59.2,58.6,30.11,WNW,287,7.0,10.0,98,0.01,,---,0.36,VWS V14.01,2013-07-02 13:15:00,
2013-07-02 09:21:00,59.1,58.5,30.11,WNW,292,5.0,10.0,98,0.01,,---,0.36,VWS V14.01,2013-07-02 13:21:00,
2013-07-02 09:25:00,59.1,58.5,30.11,West,281,4.0,10.0,98,0.01,,---,0.36,VWS V14.01,2013-07-02 13:25:00,
2013-07-02 09:30:00,59.0,58.4,30.11,SSW,207,2.0,10.0,98,0.01,,---,0.36,VWS V14.01,2013-07-02 13:30:00,
2013-07-02 09:35:00,59.1,58.5,30.11,SW,228,3.0,9.0,98,0.00,,---,0.36,VWS V14.01,2013-07-02 13:35:00,
2013-07-02 09:40:00,59.2,58.6,30.11,West,272,1.0,9.0,98,0.00,,---,0.36,VWS V14.01,2013-07-02 13:40:00,
2013-07-02 09:45:00,59.2,58.6,30.11,NNW,348,4.0,9.0,98,0.00,,---,0.36,VWS V14.01,2013-07-02 13:45:00,
2013-07-02 09:50:00,59.1,58.5,30.11,NW,325,1.0,9.0,98,0.00,,---,0.36,VWS V14.01,2013-07-02 13:50:00,
2013-07-02 09:55:00,59.1,58.5,30.11,West,276,1.0,10.0,98,0.00,,---,0.36,VWS V14.01,2013-07-02 13:55:00,
2013-07-02 10:00:00,59.2,58.6,30.11,NNW,342,4.0,10.0,98,0.00,,---,0.36,VWS V14.01,2013-07-02 14:00:00,
2013-07-02 10:05:00,59.2,58.6,30.12,NW,305,4.0,8.0,98,0.00,,---,0.36,VWS V14.01,2013-07-02 14:05:00,
2013-07-02 10:10:00,58.9,58.3,30.12,WSW,252,4.0,9.0,98,0.00,,---,0.36,VWS V14.01,2013-07-02 14:10:00,
2013-07-02 10:15:00,59.1,58.5,30.12,WSW,257,4.0,9.0,98,0.00,,---,0.36,VWS V14.01,2013-07-02 14:15:00,
2013-07-02 10:20:00,59.0,58.4,30.12,WSW,250,3.0,9.0,98,0.00,,---,0.36,VWS V14.01,2013-07-02 14:20:00,
2013-07-02 10:25:00,59.0,58.4,30.12,NNW,327,1.0,9.0,98,0.00,,---,0.36,VWS V14.01,2013-07-02 14:25:00,
2013-07-02 10:30:00,59.0,58.4,30.12,West,275,2.0,9.0,98,0.00,,---,0.36,VWS V14.01,2013-07-02 14:30:00,
2013-07-02 10:35:00,59.1,58.5,30.12,West,281,1.0,2.0,98,0.00,,---,0.36,VWS V14.01,2013-07-02 14:35:00,
2013-07-02 10:40:00,59.1,58.5,30.12,West,278,1.0,6.0,98,0.00,,---,0.36,VWS V14.01,2013-07-02 14:40:00,
2013-07-02 10:45:00,59.2,58.6,30.12,West,272,1.0,6.0,98,0.00,,---,0.36,VWS V14.01,2013-07-02 14:45:00,
2013-07-02 10:50:00,59.2,58.6,30.12,West,265,0.0,7.0,98,0.00,,---,0.36,VWS V14.01,2013-07-02 14:50:00,
2013-07-02 10:55:00,59.4,58.8,30.12,NNW,347,3.0,7.0,98,0.00,,---,0.36,VWS V14.01,2013-07-02 14:55:00,
2013-07-02 11:00:00,59.4,58.8,30.11,NNW,332,2.0,7.0,98,0.00,,---,0.36,VWS V14.01,2013-07-02 15:00:00,
2013-07-02 11:05:00,59.2,58.6,30.12,NNW,327,1.0,3.0,98,0.00,,---,0.36,VWS V14.01,2013-07-02 15:05:00,
2013-07-02 11:10:00,59.5,58.9,30.11,NW,309,0.0,4.0,98,0.00,,---,0.36,VWS V14.01,2013-07-02 15:10:00,
2013-07-02 11:15:00,59.9,59.3,30.11,WSW,239,1.0,7.0,98,0.00,,---,0.36,VWS V14.01,2013-07-02 15:15:00,
2013-07-02 11:20:00,60.2,59.6,30.11,WSW,252,0.0,7.0,98,0.00,,---,0.36,VWS V14.01,2013-07-02 15:20:00,
2013-07-02 11:25:00,60.4,59.8,30.11,NW,315,3.0,7.0,98,0.00,,---,0.36,VWS V14.01,2013-07-02 15:25:00,
2013-07-02 11:30:00,60.3,59.7,30.11,WSW,252,5.0,7.0,98,0.00,,---,0.36,VWS V14.01,2013-07-02 15:30:00,
2013-07-02 11:35:00,60.4,59.8,30.11,West,259,4.0,8.0,98,0.00,,---,0.36,VWS V14.01,2013-07-02 15:35:00,
2013-07-02 11:40:00,60.4,59.8,30.11,West,279,7.0,8.0,98,0.00,,---,0.36,VWS V14.01,2013-07-02 15:40:00,
2013-07-02 11:45:00,60.8,60.2,30.12,West,263,2.0,9.0,98,0.00,,---,0.36,VWS V14.01,2013-07-02 15:45:00,
2013-07-02 11:50:00,60.9,60.3,30.12,West,277,5.0,11.0,98,0.00,,---,0.36,VWS V14.01,2013-07-02 15:50:00,
2013-07-02 11:55:00,60.6,60.0,30.12,North,360,3.0,12.0,98,0.00,,---,0.36,VWS V14.01,2013-07-02 15:55:00,
2013-07-02 12:00:00,60.7,60.1,30.12,WSW,255,0.0,12.0,98,0.00,,---,0.36,VWS V14.01,2013-07-02 16:00:00,
2013-07-02 12:05:00,60.5,59.7,30.12,West,259,7.0,11.0,97,0.00,,---,0.36,VWS V14.01,2013-07-02 16:05:00,
2013-07-02 12:10:00,60.6,59.8,30.12,WSW,251,1.0,11.0,97,0.00,,---,0.36,VWS V14.01,2013-07-02 16:10:00,
2013-07-02 12:15:00,60.8,60.0,30.12,NNW,331,3.0,11.0,97,0.00,,---,0.36,VWS V14.01,2013-07-02 16:15:00,
2013-07-02 12:20:00,61.1,60.2,30.12,North,5,2.0,11.0,97,0.00,,---,0.36,VWS V14.01,2013-07-02 16:20:00,
2013-07-02 12:25:00,61.2,60.3,30.11,WSW,250,5.0,11.0,97,0.00,,---,0.36,VWS V14.01,2013-07-02 16:25:00,
2013-07-02 12:30:00,61.2,60.0,30.11,NW,310,2.0,11.0,96,0.00,,---,0.36,VWS V14.01,2013-07-02 16:30:00,
2013-07-02 12:35:00,61.1,60.0,30.12,WNW,302,5.0,6.0,96,0.00,,---,0.36,VWS V14.01,2013-07-02 16:35:00,
2013-07-02 12:40:00,61.1,60.0,30.12,NW,319,2.0,7.0,96,0.00,,---,0.36,VWS V14.01,2013-07-02 16:40:00,
2013-07-02 12:45:00,61.0,59.6,30.12,NW,325,1.0,10.0,95,0.00,,---,0.36,VWS V14.01,2013-07-02 16:45:00,
2013-07-02 12:50:00,61.0,59.6,30.12,West,263,3.0,10.0,95,0.00,,---,0.36,VWS V14.01,2013-07-02 16:50:00,
2013-07-02 12:55:00,61.0,59.6,30.12,NW,306,2.0,10.0,95,0.00,,---,0.36,VWS V14.01,2013-07-02 16:55:00,
2013-07-02 13:00:00,61.1,59.7,30.12,West,281,2.0,10.0,95,0.00,,---,0.36,VWS V14.01,2013-07-02 17:00:00,
2013-07-02 13:05:00,61.2,59.8,30.12,West,270,2.0,6.0,95,0.00,,---,0.36,VWS V14.01,2013-07-02 17:05:00,
2013-07-02 13:10:00,61.3,59.9,30.12,WSW,257,2.0,7.0,95,0.00,,---,0.36,VWS V14.01,2013-07-02 17:10:00,
2013-07-02 13:15:00,61.4,60.0,30.12,ENE,65,2.0,7.0,95,0.00,,---,0.36,VWS V14.01,2013-07-02 17:15:00,
2013-07-02 13:20:00,61.4,59.7,30.12,West,272,3.0,7.0,94,0.00,,---,0.36,VWS V14.01,2013-07-02 17:20:00,
2013-07-02 13:25:00,61.4,60.0,30.12,WSW,251,5.0,8.0,95,0.00,,---,0.36,VWS V14.01,2013-07-02 17:25:00,
2013-07-02 13:30:00,61.6,59.9,30.12,North,360,0.0,10.0,94,0.00,,---,0.36,VWS V14.01,2013-07-02 17:30:00,
2013-07-02 13:35:00,61.5,59.5,30.13,NE,42,3.0,6.0,93,0.00,,---,0.36,VWS V14.01,2013-07-02 17:35:00,
2013-07-02 13:40:00,61.5,59.8,30.12,West,267,4.0,8.0,94,0.00,,---,0.36,VWS V14.01,2013-07-02 17:40:00,
2013-07-02 13:45:00,61.3,59.6,30.12,West,281,3.0,8.0,94,0.00,,---,0.36,VWS V14.01,2013-07-02 17:45:00,
2013-07-02 13:50:00,61.4,59.7,30.12,NNW,329,1.0,8.0,94,0.00,,---,0.36,VWS V14.01,2013-07-02 17:50:00,
2013-07-02 13:55:00,61.4,59.7,30.12,WNW,294,2.0,8.0,94,0.00,,---,0.36,VWS V14.01,2013-07-02 17:55:00,
2013-07-02 14:00:00,61.4,59.7,30.12,West,275,3.0,8.0,94,0.00,,---,0.36,VWS V14.01,2013-07-02 18:00:00,
2013-07-02 14:05:00,61.5,60.1,30.12,West,268,1.0,2.0,95,0.00,,---,0.36,VWS V14.01,2013-07-02 18:05:00,
2013-07-02 14:10:00,61.6,60.2,30.12,WSW,250,8.0,9.0,95,0.00,,---,0.36,VWS V14.01,2013-07-02 18:10:00,
2013-07-02 14:15:00,61.4,59.7,30.12,West,275,3.0,9.0,94,0.00,,---,0.36,VWS V14.01,2013-07-02 18:15:00,
2013-07-02 14:20:00,61.4,60.0,30.12,WSW,254,0.0,10.0,95,0.00,,---,0.36,VWS V14.01,2013-07-02 18:20:00,
2013-07-02 14:25:00,61.5,60.1,30.12,West,262,1.0,10.0,95,0.00,,---,0.36,VWS V14.01,2013-07-02 18:25:00,
2013-07-02 14:30:00,61.5,60.1,30.12,NNW,332,5.0,10.0,95,0.00,,---,0.36,VWS V14.01,2013-07-02 18:30:00,
2013-07-02 14:35:00,61.4,59.7,30.12,WNW,294,5.0,9.0,94,0.00,,---,0.36,VWS V14.01,2013-07-02 18:35:00,
2013-07-02 14:40:00,61.4,60.0,30.12,North,11,2.0,9.0,95,0.00,,---,0.36,VWS V14.01,2013-07-02 18:40:00,
2013-07-02 14:45:00,61.5,60.1,30.12,WNW,293,4.0,9.0,95,0.00,,---,0.36,VWS V14.01,2013-07-02 18:45:00,
2013-07-02 14:50:00,61.4,60.0,30.12,West,275,2.0,9.0,95,0.00,,---,0.36,VWS V14.01,2013-07-02 18:50:00,
2013-07-02 14:55:00,61.4,60.0,30.12,West,281,0.0,9.0,95,0.00,,---,0.36,VWS V14.01,2013-07-02 18:55:00,
2013-07-02 15:00:00,61.4,60.0,30.12,West,275,4.0,9.0,95,0.00,,---,0.36,VWS V14.01,2013-07-02 19:00:00,
2013-07-02 15:05:00,61.5,60.1,30.12,North,5,2.0,3.0,95,0.00,,---,0.36,VWS V14.01,2013-07-02 19:05:00,
2013-07-02 15:10:00,61.3,59.9,30.12,NNW,338,3.0,8.0,95,0.00,,---,0.36,VWS V14.01,2013-07-02 19:10:00,
2013-07-02 15:15:00,61.2,59.8,30.12,WNW,288,0.0,8.0,95,0.00,,---,0.36,VWS V14.01,2013-07-02 19:15:00,
2013-07-02 15:20:00,61.2,60.0,30.12,NW,319,2.0,8.0,96,0.00,,---,0.36,VWS V14.01,2013-07-02 19:20:00,
2013-07-02 15:25:00,61.2,60.0,30.12,West,277,1.0,8.0,96,0.00,,---,0.36,VWS V14.01,2013-07-02 19:25:00,
2013-07-02 15:30:00,61.2,60.0,30.12,WSW,244,1.0,8.0,96,0.00,,---,0.36,VWS V14.01,2013-07-02 19:30:00,
2013-07-02 15:35:00,61.3,60.2,30.12,West,270,1.0,3.0,96,0.00,,---,0.36,VWS V14.01,2013-07-02 19:35:00,
2013-07-02 15:40:00,61.3,60.2,30.12,WNW,288,0.0,4.0,96,0.01,,---,0.37,VWS V14.01,2013-07-02 19:40:00,
2013-07-02 15:45:00,61.2,60.0,30.12,NW,309,4.0,4.0,96,0.01,,---,0.37,VWS V14.01,2013-07-02 19:45:00,
2013-07-02 15:50:00,61.2,60.0,30.12,WNW,282,1.0,6.0,96,0.01,,---,0.37,VWS V14.01,2013-07-02 19:50:00,
2013-07-02 15:55:00,61.2,60.3,30.12,SW,221,0.0,6.0,97,0.01,,---,0.37,VWS V14.01,2013-07-02 19:55:00,
2013-07-02 16:00:00,60.8,59.7,30.12,NW,304,1.0,7.0,96,0.01,,---,0.37,VWS V14.01,2013-07-02 20:00:00,
2013-07-02 16:05:00,60.6,59.5,30.12,WSW,246,0.0,2.0,96,0.01,,---,0.37,VWS V14.01,2013-07-02 20:05:00,
2013-07-02 16:10:00,60.4,59.3,30.12,NNW,331,1.0,5.0,96,0.01,,---,0.37,VWS V14.01,2013-07-02 20:10:00,
2013-07-02 16:15:00,60.1,59.0,30.12,West,279,2.0,5.0,96,0.01,,---,0.37,VWS V14.01,2013-07-02 20:15:00,
2013-07-02 16:20:00,60.1,59.0,30.11,WSW,256,4.0,5.0,96,0.01,,---,0.37,VWS V14.01,2013-07-02 20:20:00,
2013-07-02 16:25:00,59.8,58.7,30.11,NNW,335,1.0,5.0,96,0.01,,---,0.37,VWS V14.01,2013-07-02 20:25:00,
2013-07-02 16:30:00,59.6,58.5,30.11,NW,311,2.0,6.0,96,0.01,,---,0.37,VWS V14.01,2013-07-02 20:30:00,
2013-07-02 16:35:00,59.5,58.4,30.11,West,261,2.0,2.0,96,0.01,,---,0.37,VWS V14.01,2013-07-02 20:35:00,
2013-07-02 16:40:00,59.6,58.8,30.11,North,5,2.0,5.0,97,0.01,,---,0.37,VWS V14.01,2013-07-02 20:40:00,
2013-07-02 16:45:00,59.2,58.1,30.11,WNW,294,0.0,6.0,96,0.01,,---,0.37,VWS V14.01,2013-07-02 20:45:00,
2013-07-02 16:50:00,59.2,58.3,30.11,NE,37,0.0,6.0,97,0.01,,---,0.37,VWS V14.01,2013-07-02 20:50:00,
2013-07-02 16:55:00,59.0,57.9,30.11,WNW,294,1.0,6.0,96,0.01,,---,0.37,VWS V14.01,2013-07-02 20:55:00,
2013-07-02 17:00:00,59.1,58.2,30.11,NW,310,2.0,6.0,97,0.01,,---,0.37,VWS V14.01,2013-07-02 21:00:00,
2013-07-02 17:05:00,59.0,58.2,30.11,NW,307,1.0,3.0,97,0.00,,---,0.37,VWS V14.01,2013-07-02 21:05:00,
2013-07-02 17:10:00,58.9,58.0,30.11,WNW,286,0.0,3.0,97,0.00,,---,0.37,VWS V14.01,2013-07-02 21:10:00,
2013-07-02 17:15:00,58.9,58.0,30.11,NW,319,1.0,5.0,97,0.00,,---,0.37,VWS V14.01,2013-07-02 21:15:00,
2013-07-02 17:20:00,58.9,58.0,30.11,WNW,294,2.0,5.0,97,0.00,,---,0.37,VWS V14.01,2013-07-02 21:20:00,
2013-07-02 17:25:00,59.2,58.3,30.11,WNW,288,0.0,6.0,97,0.00,,---,0.37,VWS V14.01,2013-07-02 21:25:00,
2013-07-02 17:30:00,59.0,58.2,30.11,WSW,251,3.0,6.0,97,0.00,,---,0.37,VWS V14.01,2013-07-02 21:30:00,
2013-07-02 17:35:00,59.2,58.3,30.11,WNW,288,1.0,1.0,97,0.00,,---,0.37,VWS V14.01,2013-07-02 21:35:00,
2013-07-02 17:40:00,59.1,58.2,30.11,WSW,256,3.0,5.0,97,0.00,,---,0.37,VWS V14.01,2013-07-02 21:40:00,
2013-07-02 17:45:00,59.1,58.2,30.11,West,259,3.0,7.0,97,0.00,,---,0.37,VWS V14.01,2013-07-02 21:45:00,
2013-07-02 17:50:00,59.0,58.2,30.11,NNW,331,1.0,7.0,97,0.00,,---,0.37,VWS V14.01,2013-07-02 21:50:00,
2013-07-02 17:55:00,58.9,58.0,30.11,WSW,256,2.0,7.0,97,0.00,,---,0.37,VWS V14.01,2013-07-02 21:55:00,
2013-07-02 18:00:00,58.8,58.0,30.11,NNW,331,0.0,7.0,97,0.00,,---,0.37,VWS V14.01,2013-07-02 22:00:00,
2013-07-02 18:05:00,58.9,58.0,30.11,WSW,255,2.0,3.0,97,0.00,,---,0.37,VWS V14.01,2013-07-02 22:05:00,
2013-07-02 18:10:00,58.9,58.0,30.11,WNW,292,2.0,3.0,97,0.00,,---,0.37,VWS V14.01,2013-07-02 22:10:00,
2013-07-02 18:15:00,58.9,58.0,30.11,NW,319,0.0,4.0,97,0.00,,---,0.37,VWS V14.01,2013-07-02 22:15:00,
2013-07-02 18:20:00,58.9,58.0,30.12,NW,314,1.0,4.0,97,0.00,,---,0.37,VWS V14.01,2013-07-02 22:20:00,
2013-07-02 18:25:00,59.0,58.2,30.11,NW,308,0.0,5.0,97,0.00,,---,0.37,VWS V14.01,2013-07-02 22:25:00,
2013-07-02 18:30:00,59.0,58.2,30.11,West,271,3.0,5.0,97,0.00,,---,0.37,VWS V14.01,2013-07-02 22:30:00,
2013-07-02 18:35:00,58.9,58.0,30.12,WNW,286,0.0,0.0,97,0.00,,---,0.37,VWS V14.01,2013-07-02 22:35:00,
2013-07-02 18:40:00,58.9,58.0,30.12,WNW,303,2.0,2.0,97,0.00,,---,0.37,VWS V14.01,2013-07-02 22:40:00,
2013-07-02 18:45:00,58.8,58.0,30.12,West,274,0.0,4.0,97,0.00,,---,0.37,VWS V14.01,2013-07-02 22:45:00,
2013-07-02 18:50:00,58.7,57.8,30.12,NW,309,1.0,4.0,97,0.00,,---,0.37,VWS V14.01,2013-07-02 22:50:00,
2013-07-02 18:55:00,58.7,57.8,30.12,West,278,0.0,4.0,97,0.00,,---,0.37,VWS V14.01,2013-07-02 22:55:00,
2013-07-02 19:00:00,58.7,57.8,30.12,North,5,0.0,4.0,97,0.00,,---,0.37,VWS V14.01,2013-07-02 23:00:00,
2013-07-02 19:05:00,58.5,57.7,30.12,West,273,1.0,2.0,97,0.00,,---,0.37,VWS V14.01,2013-07-02 23:05:00,
2013-07-02 19:10:00,58.5,57.7,30.12,NNW,329,1.0,4.0,97,0.00,,---,0.37,VWS V14.01,2013-07-02 23:10:00,
2013-07-02 19:15:00,58.3,57.5,30.12,NNW,336,0.0,4.0,97,0.00,,---,0.37,VWS V14.01,2013-07-02 23:15:00,
2013-07-02 19:20:00,58.3,57.5,30.12,NNW,330,0.0,4.0,97,0.00,,---,0.37,VWS V14.01,2013-07-02 23:20:00,
2013-07-02 19:25:00,58.2,57.4,30.12,NW,306,0.0,4.0,97,0.00,,---,0.37,VWS V14.01,2013-07-02 23:25:00,
2013-07-02 19:29:00,58.1,57.3,30.12,NW,306,0.0,4.0,97,0.00,,---,0.37,VWS V14.01,2013-07-02 23:29:00,
2013-07-02 19:30:00,58.9,58.0,30.12,WNW,286,0.0,5.0,97,0.00,,---,0.37,VWS V14.01,2013-07-02 23:30:00,
2013-07-02 19:34:00,58.1,57.3,30.12,NW,306,0.0,4.0,97,0.00,,---,0.37,VWS V14.01,2013-07-02 23:34:00,
2013-07-02 19:39:00,58.1,57.3,30.12,NW,306,1.0,1.0,97,0.00,,---,0.37,VWS V14.01,2013-07-02 23:39:00,
2013-07-02 19:44:00,58.1,57.3,30.12,WNW,295,3.0,3.0,97,0.00,,---,0.37,VWS V14.01,2013-07-02 23:44:00,
2013-07-02 19:49:00,58.0,57.2,30.13,WNW,295,0.0,4.0,97,0.00,,---,0.37,VWS V14.01,2013-07-02 23:49:00,
2013-07-02 19:54:00,58.0,57.2,30.12,WNW,295,0.0,4.0,97,0.00,,---,0.37,VWS V14.01,2013-07-02 23:54:00,
2013-07-02 19:59:00,58.0,57.2,30.12,WNW,295,1.0,4.0,97,0.00,,---,0.37,VWS V14.01,2013-07-02 23:59:00,
2013-07-02 20:00:00,58.5,57.7,30.12,West,273,2.0,4.0,97,0.00,,---,0.37,VWS V14.01,2013-07-03 00:00:00,
2013-07-02 20:01:00,58.0,57.2,30.12,WNW,295,1.0,4.0,97,0.00,,---,0.37,VWS V14.01,2013-07-03 00:01:00,
2013-07-02 20:06:00,58.0,57.2,30.12,West,280,2.0,2.0,97,0.00,,---,0.37,VWS V14.01,2013-07-03 00:06:00,
2013-07-02 20:11:00,58.0,57.2,30.12,West,280,1.0,2.0,97,0.00,,---,0.37,VWS V14.01,2013-07-03 00:11:00,
2013-07-02 20:16:00,58.0,57.2,30.12,West,280,0.0,2.0,97,0.00,,---,0.37,VWS V14.01,2013-07-03 00:16:00,
2013-07-02 20:21:00,58.0,57.2,30.12,West,277,1.0,3.0,97,0.00,,---,0.37,VWS V14.01,2013-07-03 00:21:00,
2013-07-02 20:23:00,58.0,57.2,30.12,West,277,2.0,3.0,97,0.00,,---,0.37,VWS V14.01,2013-07-03 00:23:00,
2013-07-02 20:24:00,57.9,57.1,30.12,West,277,1.0,4.0,97,0.00,,---,0.37,VWS V14.01,2013-07-03 00:24:00,
2013-07-02 20:28:00,57.9,57.1,30.12,West,268,1.0,4.0,97,0.00,,---,0.37,VWS V14.01,2013-07-03 00:28:00,
2013-07-02 20:30:00,58.1,57.3,30.13,NW,306,0.0,4.0,97,0.00,,---,0.37,VWS V14.01,2013-07-03 00:30:00,
2013-07-02 20:33:00,57.9,57.1,30.12,West,267,1.0,4.0,97,0.00,,---,0.37,VWS V14.01,2013-07-03 00:33:00,
2013-07-02 20:38:00,58.0,57.2,30.13,West,267,0.0,2.0,97,0.00,,---,0.37,VWS V14.01,2013-07-03 00:38:00,
2013-07-02 20:43:00,58.1,57.3,30.12,West,267,0.0,2.0,97,0.00,,---,0.37,VWS V14.01,2013-07-03 00:43:00,
2013-07-02 20:48:00,58.1,57.0,30.12,West,267,3.0,3.0,96,0.00,,---,0.37,VWS V14.01,2013-07-03 00:48:00,
2013-07-02 20:53:00,58.0,56.9,30.13,West,267,1.0,5.0,96,0.00,,---,0.37,VWS V14.01,2013-07-03 00:53:00,
2013-07-02 20:58:00,58.0,56.9,30.13,West,267,0.0,5.0,96,0.00,,---,0.37,VWS V14.01,2013-07-03 00:58:00,
2013-07-02 21:00:00,58.0,56.9,30.13,West,267,0.0,5.0,96,0.00,,---,0.37,VWS V14.01,2013-07-03 01:00:00,
2013-07-02 21:03:00,58.0,56.9,30.13,West,267,0.0,5.0,96,0.00,,---,0.37,VWS V14.01,2013-07-03 01:03:00,
2013-07-02 21:08:00,58.0,56.9,30.13,West,261,1.0,3.0,96,0.00,,---,0.37,VWS V14.01,2013-07-03 01:08:00,
2013-07-02 21:09:00,58.0,56.9,30.13,West,261,0.0,3.0,96,0.00,,---,0.37,VWS V14.01,2013-07-03 01:09:00,
2013-07-02 21:14:00,58.0,56.9,30.14,West,261,0.0,3.0,96,0.00,,---,0.37,VWS V14.01,2013-07-03 01:14:00,
2013-07-02 21:19:00,58.1,57.0,30.14,West,261,1.0,3.0,96,0.00,,---,0.37,VWS V14.01,2013-07-03 01:19:00,
2013-07-02 21:24:00,58.1,57.0,30.14,West,261,0.0,3.0,96,0.00,,---,0.37,VWS V14.01,2013-07-03 01:24:00,
2013-07-02 21:26:00,58.1,57.0,30.14,West,261,0.0,3.0,96,0.00,,---,0.37,VWS V14.01,2013-07-03 01:26:00,
2013-07-02 21:30:00,58.0,57.2,30.12,West,267,0.0,4.0,97,0.00,,---,0.37,VWS V14.01,2013-07-03 01:30:00,
2013-07-02 21:31:00,58.1,57.0,30.13,West,261,0.0,3.0,96,0.00,,---,0.37,VWS V14.01,2013-07-03 01:31:00,
2013-07-02 21:36:00,58.1,57.3,30.14,West,261,1.0,2.0,97,0.00,,---,0.37,VWS V14.01,2013-07-03 01:36:00,
2013-07-02 21:41:00,58.1,57.0,30.13,West,261,1.0,3.0,96,0.00,,---,0.37,VWS V14.01,2013-07-03 01:41:00,
2013-07-02 21:46:00,58.1,57.3,30.13,West,261,0.0,3.0,97,0.00,,---,0.37,VWS V14.01,2013-07-03 01:46:00,
2013-07-02 21:49:00,58.1,57.3,30.13,West,261,0.0,3.0,97,0.00,,---,0.37,VWS V14.01,2013-07-03 01:49:00,
2013-07-02 21:50:00,58.1,57.3,30.13,West,261,0.0,3.0,97,0.00,,---,0.37,VWS V14.01,2013-07-03 01:50:00,
2013-07-02 21:55:00,58.1,57.3,30.14,West,261,0.0,3.0,97,0.00,,---,0.37,VWS V14.01,2013-07-03 01:55:00,
2013-07-02 22:00:00,58.0,56.9,30.13,West,267,0.0,5.0,96,0.00,,---,0.37,VWS V14.01,2013-07-03 02:00:00,
2013-07-02 22:01:00,58.1,57.3,30.14,West,261,0.0,3.0,97,0.00,,---,0.37,VWS V14.01,2013-07-03 02:01:00,
2013-07-02 22:06:00,58.2,57.4,30.14,West,261,0.0,0.0,97,0.00,,---,0.37,VWS V14.01,2013-07-03 02:06:00,
2013-07-02 22:11:00,58.1,57.3,30.13,West,261,0.0,0.0,97,0.00,,---,0.37,VWS V14.01,2013-07-03 02:11:00,
2013-07-02 22:16:00,58.1,57.3,30.14,West,261,0.0,0.0,97,0.00,,---,0.37,VWS V14.01,2013-07-03 02:16:00,
2013-07-02 22:21:00,58.1,57.3,30.13,West,261,0.0,0.0,97,0.00,,---,0.37,VWS V14.01,2013-07-03 02:21:00,
2013-07-02 22:26:00,58.1,57.3,30.13,West,261,0.0,0.0,97,0.00,,---,0.37,VWS V14.01,2013-07-03 02:26:00,
2013-07-02 22:30:00,58.1,57.0,30.14,West,261,0.0,3.0,96,0.00,,---,0.37,VWS V14.01,2013-07-03 02:30:00,
2013-07-02 22:31:00,58.1,57.3,30.12,West,261,0.0,1.0,97,0.00,,---,0.37,VWS V14.01,2013-07-03 02:31:00,
2013-07-02 22:32:00,58.1,57.3,30.12,West,261,0.0,1.0,97,0.00,,---,0.37,VWS V14.01,2013-07-03 02:32:00,
2013-07-02 22:37:00,58.0,57.2,30.12,West,261,0.0,0.0,97,0.00,,---,0.37,VWS V14.01,2013-07-03 02:37:00,
2013-07-02 22:42:00,58.0,57.2,30.12,West,261,0.0,0.0,97,0.00,,---,0.37,VWS V14.01,2013-07-03 02:42:00,
2013-07-02 22:46:00,58.1,57.3,30.13,West,261,0.0,0.0,97,0.00,,---,0.37,VWS V14.01,2013-07-03 02:46:00,
2013-07-02 22:51:00,58.1,57.3,30.12,West,261,0.0,0.0,97,0.00,,---,0.37,VWS V14.01,2013-07-03 02:51:00,
2013-07-02 22:56:00,58.1,57.3,30.12,West,261,0.0,0.0,97,0.00,,---,0.37,VWS V14.01,2013-07-03 02:56:00,
2013-07-02 23:00:00,58.1,57.3,30.14,West,261,0.0,3.0,97,0.00,,---,0.37,VWS V14.01,2013-07-03 03:00:00,
2013-07-02 23:01:00,58.1,57.3,30.12,West,261,0.0,1.0,97,0.00,,---,0.37,VWS V14.01,2013-07-03 03:01:00,
2013-07-02 23:02:00,58.1,57.3,30.12,West,261,0.0,1.0,97,0.00,,---,0.37,VWS V14.01,2013-07-03 03:02:00,
2013-07-02 23:07:00,58.0,57.2,30.12,West,261,1.0,1.0,97,0.00,,---,0.37,VWS V14.01,2013-07-03 03:07:00,
2013-07-02 23:12:00,58.0,57.2,30.11,West,261,0.0,1.0,97,0.00,,---,0.37,VWS V14.01,2013-07-03 03:12:00,
2013-07-02 23:17:00,58.1,57.3,30.12,West,261,0.0,1.0,97,0.00,,---,0.37,VWS V14.01,2013-07-03 03:17:00,
2013-07-02 23:20:00,58.1,57.3,30.12,West,261,0.0,1.0,97,0.00,,---,0.37,VWS V14.01,2013-07-03 03:20:00,
2013-07-02 23:25:00,58.1,57.3,30.11,West,261,0.0,1.0,97,0.00,,---,0.37,VWS V14.01,2013-07-03 03:25:00,
2013-07-02 23:30:00,58.2,57.4,30.11,West,261,0.0,1.0,97,0.00,,---,0.37,VWS V14.01,2013-07-03 03:30:00,
2013-07-02 23:35:00,58.3,57.5,30.11,West,261,0.0,0.0,97,0.00,,---,0.37,VWS V14.01,2013-07-03 03:35:00,
2013-07-02 23:39:00,58.3,57.5,30.11,West,261,0.0,0.0,97,0.00,,---,0.37,VWS V14.01,2013-07-03 03:39:00,
2013-07-02 23:44:00,58.3,57.2,30.11,West,261,0.0,0.0,96,0.00,,---,0.37,VWS V14.01,2013-07-03 03:44:00,
2013-07-02 23:49:00,58.3,57.2,30.11,West,261,0.0,0.0,96,0.00,,---,0.37,VWS V14.01,2013-07-03 03:49:00,
2013-07-02 23:54:00,58.3,57.2,30.11,West,261,0.0,0.0,96,0.00,,---,0.37,VWS V14.01,2013-07-03 03:54:00,
2013-07-02 23:59:00,58.3,57.2,30.11,West,261,0.0,0.0,96,0.00,,---,0.37,VWS V14.01,2013-07-03 03:59:00,